TimeEDT,TemperatureF,Dew PointF,Humidity,Sea Level PressureIn,VisibilityMPH,Wind Direction,Wind SpeedMPH,Gust SpeedMPH,PrecipitationIn,Events,Conditions,WindDirDegrees,DateUTC
12:15 AM,55.4,48.2,77,29.86,10.0,NW,4.6,-,N/A,,Clear,310,2012-10-16 04:15:00
12:35 AM,53.6,46.4,77,29.86,10.0,NW,3.5,-,N/A,,Clear,320,2012-10-16 04:35:00
12:55 AM,53.6,46.4,77,29.87,10.0,NW,3.5,-,N/A,,Clear,320,2012-10-16 04:55:00
1:15 AM,51.8,46.4,82,29.87,10.0,Calm,Calm,-,N/A,,Clear,0,2012-10-16 05:15:00
1:35 AM,51.8,46.4,82,29.87,10.0,NW,3.5,-,N/A,,Clear,320,2012-10-16 05:35:00
1:55 AM,51.8,44.6,76,29.87,10.0,Calm,Calm,-,N/A,,Clear,0,2012-10-16 05:55:00
2:15 AM,51.8,44.6,76,29.88,10.0,WNW,3.5,-,N/A,,Clear,300,2012-10-16 06:15:00
2:35 AM,50.0,44.6,82,29.88,10.0,WNW,3.5,-,N/A,,Clear,290,2012-10-16 06:35:00
2:55 AM,50.0,44.6,82,29.89,10.0,Calm,Calm,-,N/A,,Clear,0,2012-10-16 06:55:00
3:15 AM,50.0,44.6,82,29.89,10.0,Calm,Calm,-,N/A,,Clear,0,2012-10-16 07:15:00
3:35 AM,50.0,44.6,82,29.88,10.0,Calm,Calm,-,N/A,,Clear,0,2012-10-16 07:35:00
3:55 AM,50.0,42.8,76,29.88,10.0,Calm,Calm,-,N/A,,Clear,0,2012-10-16 07:55:00
4:15 AM,50.0,42.8,76,29.89,10.0,Calm,Calm,-,N/A,,Clear,0,2012-10-16 08:15:00
4:35 AM,48.2,42.8,82,29.90,10.0,Calm,Calm,-,N/A,,Clear,0,2012-10-16 08:35:00
4:55 AM,48.2,42.8,82,29.90,10.0,Calm,Calm,-,N/A,,Clear,0,2012-10-16 08:55:00
5:15 AM,46.4,42.8,87,29.90,10.0,NW,3.5,-,N/A,,Clear,310,2012-10-16 09:15:00
5:35 AM,46.4,42.8,87,29.91,10.0,Calm,Calm,-,N/A,,Clear,0,2012-10-16 09:35:00
5:55 AM,46.4,42.8,87,29.92,10.0,Calm,Calm,-,N/A,,Clear,0,2012-10-16 09:55:00
6:15 AM,46.4,42.8,87,29.91,10.0,Calm,Calm,-,N/A,,Clear,0,2012-10-16 10:15:00
6:35 AM,46.4,42.8,87,29.92,10.0,Calm,Calm,-,N/A,,Clear,0,2012-10-16 10:35:00
6:55 AM,44.6,42.8,93,29.93,10.0,Calm,Calm,-,N/A,,Clear,0,2012-10-16 10:55:00
7:15 AM,-9999,-9999,N/A,29.94,10.0,Calm,Calm,-,N/A,,Clear,0,2012-10-16 11:15:00
7:35 AM,-9999,-9999,N/A,29.94,5.0,Calm,Calm,-,N/A,,Haze,0,2012-10-16 11:35:00
8:15 AM,-9999,-9999,N/A,29.96,10.0,Calm,Calm,-,N/A,,Clear,0,2012-10-16 12:15:00
8:35 AM,-9999,-9999,N/A,29.96,10.0,Calm,Calm,-,N/A,,Clear,0,2012-10-16 12:35:00
8:55 AM,50.0,44.6,82,29.97,10.0,Calm,Calm,-,N/A,,Clear,0,2012-10-16 12:55:00
9:15 AM,51.8,46.4,82,29.97,10.0,Calm,Calm,-,N/A,,Clear,0,2012-10-16 13:15:00
9:35 AM,53.6,46.4,77,29.97,10.0,Calm,Calm,-,N/A,,Clear,0,2012-10-16 13:35:00
9:55 AM,55.4,44.6,67,29.98,10.0,Calm,Calm,-,N/A,,Clear,0,2012-10-16 13:55:00
10:15 AM,57.2,44.6,63,29.97,10.0,NNW,3.5,-,N/A,,Clear,340,2012-10-16 14:15:00
10:35 AM,59.0,44.6,59,29.96,10.0,NNE,4.6,-,N/A,,Clear,20,2012-10-16 14:35:00
10:55 AM,59.0,42.8,55,29.96,10.0,North,4.6,-,N/A,,Clear,360,2012-10-16 14:55:00
11:15 AM,60.8,44.6,55,29.96,10.0,North,4.6,-,N/A,,Clear,10,2012-10-16 15:15:00
11:35 AM,60.8,42.8,52,29.96,10.0,Calm,Calm,-,N/A,,Clear,0,2012-10-16 15:35:00
11:55 AM,60.8,42.8,52,29.96,10.0,Calm,Calm,-,N/A,,Clear,0,2012-10-16 15:55:00
12:15 PM,62.6,42.8,48,29.95,10.0,Calm,Calm,-,N/A,,Clear,0,2012-10-16 16:15:00
12:35 PM,62.6,42.8,48,29.95,10.0,Calm,Calm,-,N/A,,Clear,0,2012-10-16 16:35:00
12:55 PM,62.6,42.8,48,29.94,10.0,Calm,Calm,-,N/A,,Clear,0,2012-10-16 16:55:00
1:15 PM,62.6,42.8,48,29.93,10.0,Calm,Calm,-,N/A,,Clear,0,2012-10-16 17:15:00
1:35 PM,64.4,42.8,45,29.92,10.0,NW,4.6,-,N/A,,Clear,310,2012-10-16 17:35:00
1:55 PM,64.4,42.8,45,29.91,10.0,Calm,Calm,-,N/A,,Clear,0,2012-10-16 17:55:00
2:15 PM,64.4,41.0,42,29.90,10.0,NW,4.6,-,N/A,,Clear,310,2012-10-16 18:15:00
2:35 PM,64.4,41.0,42,29.90,10.0,NW,3.5,-,N/A,,Clear,320,2012-10-16 18:35:00
2:55 PM,66.2,42.8,43,29.90,10.0,SW,3.5,-,N/A,,Clear,220,2012-10-16 18:55:00
3:15 PM,66.2,41.0,40,29.90,10.0,Calm,Calm,-,N/A,,Clear,0,2012-10-16 19:15:00
3:35 PM,66.2,41.0,40,29.90,10.0,Calm,Calm,-,N/A,,Clear,0,2012-10-16 19:35:00
3:55 PM,66.2,42.8,43,29.90,10.0,Calm,Calm,-,N/A,,Clear,0,2012-10-16 19:55:00
4:15 PM,66.2,42.8,43,29.89,10.0,Calm,Calm,-,N/A,,Clear,0,2012-10-16 20:15:00
4:35 PM,66.2,42.8,43,29.89,10.0,NW,3.5,-,N/A,,Clear,310,2012-10-16 20:35:00
4:55 PM,64.4,42.8,45,29.88,10.0,Calm,Calm,-,N/A,,Clear,0,2012-10-16 20:55:00
5:15 PM,64.4,44.6,49,29.88,10.0,Calm,Calm,-,N/A,,Clear,0,2012-10-16 21:15:00
5:35 PM,62.6,48.2,59,29.88,10.0,Calm,Calm,-,N/A,,Clear,0,2012-10-16 21:35:00
5:55 PM,59.0,51.8,77,29.89,10.0,Calm,Calm,-,N/A,,Clear,0,2012-10-16 21:55:00
6:15 PM,55.4,51.8,88,29.89,10.0,Calm,Calm,-,N/A,,Clear,0,2012-10-16 22:15:00
6:35 PM,53.6,53.6,100,29.90,10.0,Calm,Calm,-,N/A,,Clear,0,2012-10-16 22:35:00
6:55 PM,-9999,-9999,N/A,29.90,10.0,Calm,Calm,-,N/A,,Clear,0,2012-10-16 22:55:00
7:15 PM,-9999,-9999,N/A,29.91,10.0,Calm,Calm,-,N/A,,Clear,0,2012-10-16 23:15:00
7:35 PM,-9999,-9999,N/A,29.91,10.0,Calm,Calm,-,N/A,,Clear,0,2012-10-16 23:35:00
7:55 PM,-9999,-9999,N/A,29.92,10.0,Calm,Calm,-,N/A,,Clear,0,2012-10-16 23:55:00
8:15 PM,-9999,-9999,N/A,29.92,7.0,Calm,Calm,-,N/A,,Clear,0,2012-10-17 00:15:00
8:35 PM,-9999,-9999,N/A,29.93,7.0,Calm,Calm,-,N/A,,Clear,0,2012-10-17 00:35:00
8:55 PM,-9999,-9999,N/A,29.92,10.0,Calm,Calm,-,N/A,,Clear,0,2012-10-17 00:55:00
9:15 PM,-9999,-9999,N/A,29.92,7.0,Calm,Calm,-,N/A,,Clear,0,2012-10-17 01:15:00
9:35 PM,-9999,-9999,N/A,29.92,7.0,Calm,Calm,-,N/A,,Clear,0,2012-10-17 01:35:00
9:55 PM,-9999,-9999,N/A,29.92,7.0,Calm,Calm,-,N/A,,Clear,0,2012-10-17 01:55:00
10:15 PM,-9999,-9999,N/A,29.92,7.0,Calm,Calm,-,N/A,,Clear,0,2012-10-17 02:15:00
10:35 PM,-9999,-9999,N/A,29.92,7.0,Calm,Calm,-,N/A,,Clear,0,2012-10-17 02:35:00
10:55 PM,-9999,-9999,N/A,29.92,7.0,Calm,Calm,-,N/A,,Clear,0,2012-10-17 02:55:00
11:15 PM,-9999,-9999,N/A,29.93,7.0,Calm,Calm,-,N/A,,Clear,0,2012-10-17 03:15:00
11:35 PM,-9999,-9999,N/A,29.94,7.0,Calm,Calm,-,N/A,,Clear,0,2012-10-17 03:35:00
11:55 PM,-9999,-9999,N/A,29.94,7.0,Calm,Calm,-,N/A,,Clear,0,2012-10-17 03:55:00